Main page
METAR-TAF:

METAR-TAF

Airports :

DeLand Municipal Airport

DeLand, Florida, United States

latitude: 29-04-01N, longitude: 081-17-02W, elevation: 79 ft

Current weather observation

The report was made 22 minutes ago, at 08:35 UTC
Wind 3 mph from the East
Temperature 66°F
Humidity 94%
Pressure 30.14 in. Hg
Visibility: 10 miles
Clear sky

METAR: KDED 180835Z AUTO 08003KT 10SM CLR 19/18 A3014 RMK AO2 T01950183

Time: 04:57 (08:57 UTC)


TAF: missing

Weather observations and forecasts of more than 4000 airports (METAR and TAF reports).

The available stations are represented by yellow and red dots on the map.

Hover mouse over dot to see the name of the station.

Then click to see weather observations and forecasts.

To change the map : click on the green buttons with a black cross to zoom in, on the green button with a dash to zoom out, or on the green arrows for adjacent maps.


METAR-TAF: